FW3611 Weather Reports


Display with metric or nautical units.
time (UTC)temp
F
wind
direction
speed
MPH
gust
MPH
rain 1hr
in
rain 24hr
in
rain mn
in
humidity
%
barometer
mb
20220124163437 56 348 3.0 8.0 0.00 0.00 0.00 33 1015.7
20220124162938 55 265 3.0 8.0 0.00 0.00 0.00 32 1015.6
20220124162443 56 287 2.0 8.0 0.00 0.00 0.00 32 1015.7
20220124161937 55 255 3.0 6.0 0.00 0.00 0.00 33 1015.7
20220124161432 54 297 3.0 5.0 0.00 0.00 0.00 34 1015.8
20220124160932 54 241 2.0 5.0 0.00 0.00 0.00 35 1015.9
20220124160431 54 155 2.0 4.0 0.00 0.00 0.00 34 1015.8
20220124155937 55 267 2.0 5.0 0.00 0.00 0.00 35 1015.9
20220124155438 53 269 3.0 5.0 0.00 0.00 0.00 37 1016.0
20220124154936 53 266 2.0 5.0 0.00 0.00 0.00 36 1016.0
20220124154428 53 311 2.0 6.0 0.00 0.00 0.00 37 1016.1
20220124153919 52 268 2.0 6.0 0.00 0.00 0.00 39 1016.1
20220124153420 51 296 2.0 5.0 0.00 0.00 0.00 40 1016.2
20220124152919 52 271 2.0 5.0 0.00 0.00 0.00 38 1016.2
20220124152420 51 250 2.0 4.0 0.00 0.00 0.00 39 1016.3
20220124151922 51 344 3.0 5.0 0.00 0.00 0.00 40 1016.4
20220124151419 50 297 2.0 5.0 0.00 0.00 0.00 42 1016.4
20220124150922 50 250 2.0 5.0 0.00 0.00 0.00 41 1016.4
20220124150421 49 307 3.0 6.0 0.00 0.00 0.00 43 1016.4
20220124145921 49 276 3.0 6.0 0.00 0.00 0.00 43 1016.3
20220124145418 48 266 3.0 6.0 0.00 0.00 0.00 45 1016.3
20220124144920 48 255 2.0 7.0 0.00 0.00 0.00 46 1016.2
20220124144416 48 270 2.0 7.0 0.00 0.00 0.00 46 1016.4
20220124143917 47 314 3.0 6.0 0.00 0.00 0.00 47 1016.3
20220124143416 46 280 2.0 6.0 0.00 0.00 0.00 48 1016.2
20220124142910 46 276 2.0 6.0 0.00 0.00 0.00 50 1016.2
20220124142409 46 287 2.0 6.0 0.00 0.00 0.00 53 1016.1
20220124141910 45 337 2.0 6.0 0.00 0.00 0.00 51 1016.1
20220124141408 44 310 2.0 6.0 0.00 0.00 0.00 54 1016.2
20220124140914 44 249 3.0 7.0 0.00 0.00 0.00 52 1016.1
20220124140415 43 312 2.0 7.0 0.00 0.00 0.00 54 1016.1
20220124135912 43 322 2.0 5.0 0.00 0.00 0.00 54 1015.9
20220124135413 42 316 2.0 5.0 0.00 0.00 0.00 57 1015.9
20220124134911 42 327 1.0 4.0 0.00 0.00 0.00 57 1015.9
20220124134422 41 314 1.0 3.0 0.00 0.00 0.00 58 1016.0
20220124133915 41 314 1.0 3.0 0.00 0.00 0.00 60 1016.0
20220124133421 40 314 0.0 2.0 0.00 0.00 0.00 60 1016.0
20220124132910 38 284 0.0 2.0 0.00 0.00 0.00 63 1016.0
20220124132411 37 284 0.0 2.0 0.00 0.00 0.00 67 1016.0
20220124131911 34 284 0.0 2.0 0.00 0.00 0.00 70 1015.9
20220124131409 32 284 0.0 0.0 0.00 0.00 0.00 69 1015.9
20220124130910 32 284 0.0 0.0 0.00 0.00 0.00 69 1015.9
20220124130411 32 284 0.0 0.0 0.00 0.00 0.00 69 1015.9
20220124125910 32 284 0.0 0.0 0.00 0.00 0.00 69 1015.9
20220124125419 32 284 0.0 0.0 0.00 0.00 0.00 69 1015.7
20220124124914 32 284 0.0 0.0 0.00 0.00 0.00 69 1015.7
20220124124411 32 284 0.0 0.0 0.00 0.00 0.00 69 1015.8
20220124123910 32 284 0.0 0.0 0.00 0.00 0.00 69 1015.8
20220124123403 32 284 0.0 0.0 0.00 0.00 0.00 68 1015.7
20220124122903 32 284 0.0 0.0 0.00 0.00 0.00 68 1015.6
20220124122404 32 284 0.0 0.0 0.00 0.00 0.00 68 1015.5
20220124121905 32 284 0.0 0.0 0.00 0.00 0.00 68 1015.5
20220124121405 33 284 0.0 0.0 0.00 0.00 0.00 68 1015.5
20220124120911 33 284 0.0 0.0 0.00 0.00 0.00 68 1015.5
20220124120353 33 284 0.0 0.0 0.00 0.00 0.00 68 1015.5
20220124115852 33 284 0.0 0.0 0.00 0.00 0.00 68 1015.4
20220124115344 33 284 0.0 0.0 0.00 0.00 0.00 68 1015.3
20220124114832 33 284 0.0 0.0 0.00 0.00 0.00 68 1015.3
20220124114333 33 284 0.0 0.0 0.00 0.00 0.00 67 1015.3
20220124113845 33 284 0.0 0.0 0.00 0.00 0.00 67 1015.2
20220124113332 33 284 0.0 0.0 0.00 0.00 0.00 67 1015.1
20220124112841 33 284 0.0 0.0 0.00 0.00 0.00 67 1015.0
20220124112331 33 284 0.0 0.0 0.00 0.00 0.00 67 1015.1
20220124111832 33 284 0.0 0.0 0.00 0.00 0.00 67 1014.9
20220124111331 33 284 0.0 1.0 0.00 0.00 0.00 67 1014.9
20220124110831 33 284 0.0 1.0 0.00 0.00 0.00 67 1014.9
20220124110338 33 284 0.0 0.0 0.00 0.00 0.00 67 1014.9
20220124105838 34 284 0.0 0.0 0.00 0.00 0.00 67 1014.8
20220124105336 34 284 0.0 1.0 0.00 0.00 0.00 67 1014.6
20220124104833 34 284 0.0 1.0 0.00 0.00 0.00 67 1014.5
20220124104333 34 284 0.0 0.0 0.00 0.00 0.00 67 1014.3
20220124103832 34 284 0.0 1.0 0.00 0.00 0.00 67 1014.3
20220124103317 34 284 0.0 1.0 0.00 0.00 0.00 67 1014.2
20220124102812 34 284 0.0 0.0 0.00 0.00 0.00 67 1014.2
20220124102318 34 284 0.0 1.0 0.00 0.00 0.00 68 1014.2
20220124101810 34 284 0.0 1.0 0.00 0.00 0.00 68 1014.2
20220124101319 34 284 0.0 2.0 0.00 0.00 0.00 67 1014.3
20220124100825 34 284 0.0 3.0 0.00 0.00 0.00 67 1014.4
20220124100313 34 284 0.0 3.0 0.00 0.00 0.00 67 1014.5
20220124095813 34 283 0.0 3.0 0.00 0.00 0.00 67 1014.5
20220124095315 34 285 0.0 1.0 0.00 0.00 0.00 67 1014.5
20220124094810 34 285 0.0 3.0 0.00 0.00 0.00 68 1014.5
20220124094319 33 285 0.0 3.0 0.00 0.00 0.00 68 1014.5
20220124093814 33 248 0.0 0.0 0.00 0.00 0.00 68 1014.6
20220124093309 33 248 0.0 0.0 0.00 0.00 0.00 68 1014.6
20220124092809 33 248 0.0 1.0 0.00 0.00 0.00 68 1014.7
20220124092306 33 248 0.0 1.0 0.00 0.00 0.00 68 1014.7
20220124091808 33 248 0.0 1.0 0.00 0.00 0.00 68 1014.7
20220124091304 33 248 0.0 0.0 0.00 0.00 0.00 67 1014.8
20220124090807 33 248 0.0 0.0 0.00 0.00 0.00 67 1014.7
20220124090303 33 248 0.0 0.0 0.00 0.00 0.00 67 1014.8
20220124085803 33 248 0.0 0.0 0.00 0.00 0.00 67 1014.8
20220124085257 33 248 0.0 0.0 0.00 0.00 0.00 67 1014.8
20220124084756 34 248 0.0 0.0 0.00 0.00 0.00 67 1014.9
20220124084256 34 248 0.0 0.0 0.00 0.00 0.00 67 1014.8
20220124083754 34 248 0.0 0.0 0.00 0.00 0.00 67 1014.9
20220124083253 34 248 0.0 0.0 0.00 0.00 0.00 67 1014.9
20220124082753 34 248 0.0 0.0 0.00 0.00 0.00 67 1014.8
20220124082252 34 248 0.0 0.0 0.00 0.00 0.00 67 1014.8
20220124081758 34 248 0.0 0.0 0.00 0.00 0.00 67 1014.9
20220124081252 34 248 0.0 0.0 0.00 0.00 0.00 68 1014.9
20220124080807 34 248 0.0 0.0 0.00 0.00 0.00 67 1014.9
20220124080251 34 248 0.0 0.0 0.00 0.00 0.00 68 1014.9
20220124075757 34 248 0.0 0.0 0.00 0.00 0.00 68 1014.9
20220124075253 34 248 0.0 1.0 0.00 0.00 0.00 68 1014.9
20220124074807 34 248 0.0 2.0 0.00 0.00 0.00 68 1014.9
20220124074257 34 248 0.0 2.0 0.00 0.00 0.00 68 1014.9
20220124073746 34 248 0.0 0.0 0.00 0.00 0.00 68 1015.0
20220124073249 33 248 0.0 0.0 0.00 0.00 0.00 68 1015.0
20220124072749 33 248 0.0 1.0 0.00 0.00 0.00 68 1015.0
20220124072251 33 248 0.0 1.0 0.00 0.00 0.00 67 1015.1
20220124071746 33 248 0.0 1.0 0.00 0.00 0.00 67 1015.1
20220124071249 34 248 0.0 1.0 0.00 0.00 0.00 68 1015.1
20220124070744 34 248 0.0 1.0 0.00 0.00 0.00 67 1015.2
20220124070244 34 248 0.0 1.0 0.00 0.00 0.00 67 1015.1
20220124065748 34 248 0.0 1.0 0.00 0.00 0.00 67 1015.1
20220124065245 34 248 0.0 0.0 0.00 0.00 0.00 67 1015.1
20220124064753 34 248 0.0 0.0 0.00 0.00 0.00 66 1015.2
20220124064245 34 248 0.0 0.0 0.00 0.00 0.00 66 1015.1
20220124063746 35 248 0.0 0.0 0.00 0.00 0.00 66 1015.0
20220124063245 35 248 0.0 0.0 0.00 0.00 0.00 65 1015.1
20220124062743 35 248 0.0 0.0 0.00 0.00 0.00 65 1015.1
20220124062242 35 248 0.0 1.0 0.00 0.00 0.00 64 1015.1
20220124061742 35 248 0.0 1.0 0.00 0.00 0.00 65 1015.1
20220124061242 36 248 0.0 2.0 0.00 0.00 0.00 64 1015.2
20220124060749 36 248 0.0 2.0 0.00 0.00 0.00 64 1015.2
20220124060257 36 248 0.0 0.0 0.00 0.00 0.00 64 1015.1
20220124055742 37 248 0.0 0.0 0.00 0.00 0.00 64 1015.2
20220124055244 37 248 0.0 4.0 0.00 0.00 0.00 64 1015.3
20220124054743 37 248 0.0 4.0 0.00 0.00 0.00 64 1015.3
20220124054242 37 249 1.0 2.0 0.00 0.00 0.00 64 1015.3
20220124053744 37 249 1.0 3.0 0.00 0.00 0.00 65 1015.4
20220124053240 37 249 1.0 3.0 0.00 0.00 0.00 65 1015.4
20220124052741 37 261 1.0 3.0 0.00 0.00 0.00 65 1015.4
20220124052241 37 262 1.0 4.0 0.00 0.00 0.00 65 1015.4
20220124051754 37 272 1.0 4.0 0.00 0.00 0.00 65 1015.5
20220124051240 38 273 1.0 3.0 0.00 0.00 0.00 65 1015.6
20220124050752 38 273 0.0 2.0 0.00 0.00 0.00 65 1015.6
20220124050238 38 275 0.0 2.0 0.00 0.00 0.00 65 1015.6
20220124045736 38 275 1.0 2.0 0.00 0.00 0.00 65 1015.6
20220124045238 38 275 1.0 2.0 0.00 0.00 0.00 64 1015.7
20220124044745 38 275 0.0 2.0 0.00 0.00 0.00 64 1015.8
20220124044237 38 275 0.0 2.0 0.00 0.00 0.00 63 1015.8
20220124043736 38 275 0.0 2.0 0.00 0.00 0.00 63 1015.9
20220124043237 38 275 0.0 2.0 0.00 0.00 0.00 63 1015.9
20220124042736 38 275 0.0 2.0 0.00 0.00 0.00 62 1015.8
20220124042237 38 275 0.0 2.0 0.00 0.00 0.00 62 1015.8
20220124041736 39 275 0.0 2.0 0.00 0.00 0.00 61 1015.8
20220124041233 39 275 0.0 2.0 0.00 0.00 0.00 61 1015.7
20220124040735 39 275 0.0 0.0 0.00 0.00 0.00 61 1015.6
20220124040233 39 275 0.0 2.0 0.00 0.00 0.00 61 1015.6
20220124035730 39 275 1.0 4.0 0.00 0.00 0.00 62 1015.6
20220124035230 39 275 1.0 4.0 0.00 0.00 0.00 62 1015.5
20220124034730 39 262 1.0 4.0 0.00 0.00 0.00 63 1015.5
20220124034236 39 278 1.0 4.0 0.00 0.00 0.00 63 1015.5
20220124033741 39 278 0.0 4.0 0.00 0.00 0.00 62 1015.5
20220124033229 39 285 0.0 2.0 0.00 0.00 0.00 63 1015.5
20220124032726 39 285 0.0 1.0 0.00 0.00 0.00 62 1015.4
20220124032226 39 285 0.0 2.0 0.00 0.00 0.00 63 1015.3
20220124031725 39 285 1.0 2.0 0.00 0.00 0.00 63 1015.3
20220124031226 39 285 1.0 4.0 0.00 0.00 0.00 63 1015.4
20220124030724 39 285 1.0 4.0 0.00 0.00 0.00 63 1015.4
20220124030226 39 245 1.0 3.0 0.00 0.00 0.00 63 1015.5
20220124025728 39 245 0.0 3.0 0.00 0.00 0.00 64 1015.5
20220124025234 39 237 0.0 0.0 0.00 0.00 0.00 64 1015.5
20220124024721 39 237 0.0 2.0 0.00 0.00 0.00 64 1015.5
20220124024220 39 237 0.0 2.0 0.00 0.00 0.00 64 1015.4
20220124023723 39 237 0.0 2.0 0.00 0.00 0.00 64 1015.4
20220124023220 39 237 0.0 2.0 0.00 0.00 0.00 63 1015.4
20220124022718 39 237 0.0 0.0 0.00 0.00 0.00 63 1015.4
20220124022219 39 237 0.0 3.0 0.00 0.00 0.00 63 1015.4
20220124021726 39 237 0.0 3.0 0.00 0.00 0.00 63 1015.4
20220124021221 39 287 0.0 1.0 0.00 0.00 0.00 64 1015.4
20220124020723 39 287 0.0 0.0 0.00 0.00 0.00 64 1015.4
20220124020210 39 287 0.0 0.0 0.00 0.00 0.00 64 1015.5
20220124015710 39 287 0.0 0.0 0.00 0.00 0.00 64 1015.6
20220124015211 39 287 0.0 0.0 0.00 0.00 0.00 64 1015.6
20220124014716 39 287 0.0 0.0 0.00 0.00 0.00 64 1015.5
20220124014207 39 287 0.0 0.0 0.00 0.00 0.00 64 1015.5
20220124013715 39 287 0.0 0.0 0.00 0.00 0.00 64 1015.4
20220124013207 40 287 0.0 0.0 0.00 0.00 0.00 65 1015.3
20220124012707 40 287 0.0 1.0 0.00 0.00 0.00 65 1015.4
20220124012208 40 287 0.0 1.0 0.00 0.00 0.00 65 1015.4
20220124011707 40 287 0.0 2.0 0.00 0.00 0.00 65 1015.4
20220124011206 40 287 0.0 2.0 0.00 0.00 0.00 65 1015.4
20220124010705 40 288 0.0 0.0 0.00 0.00 0.00 65 1015.4
20220124010218 40 288 0.0 2.0 0.00 0.00 0.00 64 1015.4
20220124005705 40 288 0.0 2.0 0.00 0.00 0.00 64 1015.3
20220124005207 40 261 0.0 0.0 0.00 0.00 0.00 64 1015.3
20220124004703 40 261 0.0 0.0 0.00 0.00 0.00 63 1015.2
20220124004204 41 261 0.0 0.0 0.00 0.00 0.00 63 1015.1
20220124003704 41 261 0.0 0.0 0.00 0.00 0.00 63 1015.1
20220124003203 41 261 0.0 0.0 0.00 0.00 0.00 62 1015.2
20220124002705 42 261 0.0 0.0 0.00 0.00 0.00 61 1015.2
20220124002205 42 261 0.0 0.0 0.00 0.00 0.00 60 1015.1
20220124001702 42 261 0.0 0.0 0.00 0.00 0.00 60 1015.0
20220124001205 43 261 0.0 0.0 0.00 0.00 0.00 58 1015.0
20220124000702 43 261 0.0 0.0 0.00 0.00 0.00 58 1015.0
20220124000216 43 261 0.0 0.0 0.00 0.00 0.00 57 1014.9
20220123235715 44 261 0.0 0.0 0.00 0.00 0.00 55 1014.8
20220123235204 44 261 0.0 0.0 0.00 0.00 0.00 54 1014.8
20220123234704 44 261 0.0 0.0 0.00 0.00 0.00 54 1014.8
20220123234203 45 261 0.0 0.0 0.00 0.00 0.00 53 1014.8
20220123233706 45 261 0.0 0.0 0.00 0.00 0.00 52 1014.7
20220123233204 46 261 0.0 0.0 0.00 0.00 0.00 51 1014.7
20220123232707 46 261 0.0 1.0 0.00 0.00 0.00 50 1014.8
20220123232209 47 261 1.0 2.0 0.00 0.00 0.00 49 1014.7
20220123231659 47 261 0.0 2.0 0.00 0.00 0.00 47 1014.6
20220123231201 48 261 0.0 1.0 0.00 0.00 0.00 47 1014.7
20220123230659 49 261 0.0 1.0 0.00 0.00 0.00 46 1014.8
20220123230200 49 261 1.0 6.0 0.00 0.00 0.00 46 1014.7
20220123225701 50 261 1.0 6.0 0.00 0.00 0.00 42 1014.7
20220123225157 50 222 1.0 5.0 0.00 0.00 0.00 44 1014.6
20220123224657 51 235 2.0 6.0 0.00 0.00 0.00 41 1014.6
20220123224159 51 214 2.0 6.0 0.00 0.00 0.00 39 1014.6
20220123223657 52 190 2.0 3.0 0.00 0.00 0.00 37 1014.6
20220123223155 52 189 2.0 8.0 0.00 0.00 0.00 36 1014.7
20220123222656 53 135 2.0 8.0 0.00 0.00 0.00 34 1014.8
20220123222154 53 259 1.0 4.0 0.00 0.00 0.00 37 1014.8
20220123221651 53 231 2.0 9.0 0.00 0.00 0.00 34 1014.8
20220123221151 54 218 3.0 9.0 0.00 0.00 0.00 33 1014.8
20220123220657 54 249 3.0 9.0 0.00 0.00 0.00 32 1015.0
20220123220151 54 278 3.0 9.0 0.00 0.00 0.00 33 1014.9
20220123215651 55 272 3.0 8.0 0.00 0.00 0.00 33 1014.8
20220123215149 55 265 2.0 5.0 0.00 0.00 0.00 31 1014.8
20220123214646 55 258 2.0 6.0 0.00 0.00 0.00 30 1015.0
20220123214145 55 260 2.0 7.0 0.00 0.00 0.00 32 1015.0
20220123213639 56 268 2.0 7.0 0.00 0.00 0.00 33 1015.1
20220123213136 55 268 3.0 9.0 0.00 0.00 0.00 30 1015.2
20220123212635 55 216 4.0 9.0 0.00 0.00 0.00 29 1015.1
20220123212139 56 253 4.0 9.0 0.00 0.00 0.00 30 1015.1
20220123211635 56 296 4.0 9.0 0.00 0.00 0.00 30 1015.2
20220123211135 56 304 4.0 8.0 0.00 0.00 0.00 30 1015.2
20220123210635 56 228 4.0 8.0 0.00 0.00 0.00 29 1015.2
20220123210145 55 233 4.0 9.0 0.00 0.00 0.00 31 1015.3
20220123205635 55 288 4.0 11.0 0.00 0.00 0.00 29 1015.4
20220123205136 55 295 5.0 11.0 0.00 0.00 0.00 31 1015.5
20220123204640 56 235 4.0 11.0 0.00 0.00 0.00 32 1015.6
20220123204138 55 203 5.0 11.0 0.00 0.00 0.00 30 1015.6
20220123203632 55 259 4.0 11.0 0.00 0.00 0.00 32 1015.6
20220123203132 55 230 4.0 11.0 0.00 0.00 0.00 33 1015.6
20220123202628 55 262 4.0 10.0 0.00 0.00 0.00 33 1015.8
20220123202125 56 278 4.0 9.0 0.00 0.00 0.00 34 1015.7
20220123201622 56 246 3.0 8.0 0.00 0.00 0.00 32 1015.7
20220123201120 56 290 4.0 13.0 0.00 0.00 0.00 34 1015.6
20220123200631 55 233 5.0 13.0 0.00 0.00 0.00 34 1015.7
20220123200119 55 252 5.0 10.0 0.00 0.00 0.00 34 1015.8
20220123195619 55 245 4.0 9.0 0.00 0.00 0.00 34 1015.8
20220123195119 55 228 4.0 9.0 0.00 0.00 0.00 37 1015.8
20220123194620 55 172 4.0 9.0 0.00 0.00 0.00 36 1015.8
20220123194116 54 294 5.0 10.0 0.00 0.00 0.00 36 1015.9
20220123193616 54 239 4.0 11.0 0.00 0.00 0.00 35 1015.9
20220123193113 55 278 4.0 12.0 0.00 0.00 0.00 37 1016.0
20220123192612 54 324 4.0 12.0 0.00 0.00 0.00 39 1016.1
20220123192112 53 302 5.0 10.0 0.00 0.00 0.00 38 1016.0
20220123191611 53 301 5.0 10.0 0.00 0.00 0.00 39 1016.1
20220123191110 53 207 4.0 9.0 0.00 0.00 0.00 40 1016.1
20220123190611 53 222 4.0 9.0 0.00 0.00 0.00 39 1016.1
20220123190112 53 265 4.0 10.0 0.00 0.00 0.00 38 1016.3
20220123185610 53 272 4.0 10.0 0.00 0.00 0.00 36 1016.3
20220123185109 53 214 5.0 12.0 0.00 0.00 0.00 39 1016.4
20220123184610 52 224 5.0 13.0 0.00 0.00 0.00 41 1016.5
20220123184111 52 241 4.0 13.0 0.00 0.00 0.00 40 1016.6
20220123183613 52 228 4.0 9.0 0.00 0.00 0.00 42 1016.7
20220123183116 52 276 4.0 9.0 0.00 0.00 0.00 42 1017.1
20220123182616 51 275 4.0 10.0 0.00 0.00 0.00 41 1017.2
20220123182115 51 159 4.0 11.0 0.00 0.00 0.00 40 1017.3
20220123181616 51 303 5.0 11.0 0.00 0.00 0.00 42 1017.4
20220123181115 51 249 5.0 10.0 0.00 0.00 0.00 43 1017.5
20220123180613 51 201 4.0 10.0 0.00 0.00 0.00 45 1017.8
20220123180129 51 213 4.0 10.0 0.00 0.00 0.00 42 1017.7
20220123175612 50 316 4.0 8.0 0.00 0.00 0.00 44 1017.8
20220123175121 51 213 3.0 8.0 0.00 0.00 0.00 45 1018.0
20220123174608 50 216 4.0 9.0 0.00 0.00 0.00 44 1018.2
20220123174111 49 233 5.0 11.0 0.00 0.00 0.00 47 1018.4
20220123173605 49 263 4.0 12.0 0.00 0.00 0.00 47 1018.5
20220123173108 49 287 4.0 11.0 0.00 0.00 0.00 44 1018.7
20220123172618 49 272 4.0 10.0 0.00 0.00 0.00 48 1018.8
20220123172103 49 289 5.0 11.0 0.00 0.00 0.00 49 1019.0
20220123171605 49 260 5.0 11.0 0.00 0.00 0.00 48 1019.0
20220123171107 49 290 4.0 9.0 0.00 0.00 0.00 55 1019.1
20220123170616 49 303 4.0 9.0 0.00 0.00 0.00 54 1019.4
20220123170109 48 273 3.0 7.0 0.00 0.00 0.00 56 1019.5
20220123165608 48 236 4.0 11.0 0.00 0.00 0.00 58 1019.5
20220123165113 47 203 5.0 11.0 0.00 0.00 0.00 56 1019.6
20220123164610 48 328 4.0 8.0 0.00 0.00 0.00 58 1019.6
20220123164109 47 301 5.0 10.0 0.00 0.00 0.00 57 1019.6